| time (UTC) | temp F | wind direction | speed MPH | gust MPH | rain 1hr in | rain 24hr in | rain mn in | humidity % | barometer mb |
| 20260504050709 | 40 | 170 | 0.0 | 1.0 | 0.00 | 0.00 | 0.00 | 85 | 1008.3 |
| 20260504050206 | 41 | 170 | 0.0 | 0.0 | 0.00 | 0.00 | 0.00 | 85 | 1008.4 |
| 20260504045703 | 42 | 170 | 0.0 | 0.0 | 0.00 | 0.00 | 0.00 | 84 | 1008.2 |
| 20260504045158 | 42 | 170 | 0.0 | 0.0 | 0.00 | 0.00 | 0.00 | 85 | 1008.4 |
| 20260504044656 | 43 | 170 | 0.0 | 0.0 | 0.00 | 0.00 | 0.00 | 85 | 1008.5 |
| 20260504044153 | 44 | 170 | 0.0 | 0.0 | 0.00 | 0.00 | 0.00 | 84 | 1008.5 |
| 20260504043650 | 45 | 170 | 0.0 | 0.0 | 0.00 | 0.00 | 0.00 | 83 | 1008.5 |
| 20260504043147 | 44 | 170 | 0.0 | 0.0 | 0.00 | 0.00 | 0.00 | 79 | 1008.6 |
| 20260504042644 | 44 | 170 | 0.0 | 0.0 | 0.00 | 0.00 | 0.00 | 83 | 1008.7 |
| 20260504042140 | 44 | 170 | 0.0 | 0.0 | 0.00 | 0.00 | 0.00 | 84 | 1008.6 |
| 20260504041636 | 44 | 170 | 0.0 | 0.0 | 0.00 | 0.00 | 0.00 | 86 | 1008.5 |
| 20260504041133 | 44 | 170 | 0.0 | 0.0 | 0.00 | 0.00 | 0.00 | 85 | 1008.5 |
| 20260504040630 | 43 | 169 | 0.0 | 0.0 | 0.00 | 0.00 | 0.00 | 83 | 1008.4 |
| 20260504040127 | 44 | 169 | 0.0 | 0.0 | 0.00 | 0.00 | 0.00 | 86 | 1008.3 |
| 20260504035623 | 43 | 169 | 0.0 | 0.0 | 0.00 | 0.00 | 0.00 | 85 | 1008.4 |
| 20260504035120 | 44 | 169 | 0.0 | 0.0 | 0.00 | 0.00 | 0.00 | 83 | 1008.3 |
| 20260504034618 | 44 | 169 | 0.0 | 0.0 | 0.00 | 0.00 | 0.00 | 82 | 1008.4 |
| 20260504034114 | 44 | 169 | 0.0 | 0.0 | 0.00 | 0.00 | 0.00 | 81 | 1008.4 |
| 20260504033613 | 44 | 169 | 0.0 | 0.0 | 0.00 | 0.00 | 0.00 | 80 | 1008.6 |
| 20260504033110 | 44 | 169 | 0.0 | 0.0 | 0.00 | 0.00 | 0.00 | 81 | 1008.6 |
| 20260504032606 | 44 | 169 | 0.0 | 0.0 | 0.00 | 0.00 | 0.00 | 80 | 1008.5 |
| 20260504032103 | 45 | 169 | 0.0 | 0.0 | 0.00 | 0.00 | 0.00 | 79 | 1008.5 |
| 20260504031601 | 45 | 170 | 0.0 | 0.0 | 0.00 | 0.00 | 0.00 | 80 | 1008.6 |
| 20260504031056 | 46 | 169 | 0.0 | 0.0 | 0.00 | 0.00 | 0.00 | 77 | 1008.5 |
| 20260504030554 | 46 | 265 | 0.0 | 0.0 | 0.00 | 0.00 | 0.00 | 76 | 1008.7 |
| 20260504030050 | 45 | 265 | 0.0 | 0.0 | 0.00 | 0.00 | 0.00 | 76 | 1008.5 |
| 20260504025547 | 45 | 147 | 0.0 | 0.0 | 0.00 | 0.00 | 0.00 | 78 | 1008.8 |
| 20260504025044 | 45 | 147 | 0.0 | 0.0 | 0.00 | 0.00 | 0.00 | 75 | 1009.0 |
| 20260504024541 | 45 | 147 | 0.0 | 0.0 | 0.00 | 0.00 | 0.00 | 74 | 1008.8 |
| 20260504024038 | 42 | 243 | 0.0 | 0.0 | 0.00 | 0.00 | 0.00 | 84 | 1008.9 |
| 20260504023534 | 42 | 170 | 1.0 | 1.0 | 0.00 | 0.00 | 0.00 | 85 | 1009.1 |
| 20260504023030 | 41 | 169 | 0.0 | 0.0 | 0.00 | 0.00 | 0.00 | 84 | 1008.9 |
| 20260504022526 | 40 | 170 | 0.0 | 0.0 | 0.00 | 0.00 | 0.00 | 88 | 1009.0 |
| 20260504022023 | 40 | 170 | 0.0 | 0.0 | 0.00 | 0.00 | 0.00 | 88 | 1009.0 |
| 20260504021521 | 40 | 170 | 0.0 | 0.0 | 0.00 | 0.00 | 0.00 | 88 | 1008.9 |
| 20260504021017 | 40 | 170 | 0.0 | 0.0 | 0.00 | 0.00 | 0.00 | 86 | 1009.0 |
| 20260504020514 | 40 | 170 | 0.0 | 0.0 | 0.00 | 0.00 | 0.00 | 86 | 1009.0 |
| 20260504020011 | 40 | 170 | 0.0 | 0.0 | 0.00 | 0.00 | 0.00 | 85 | 1009.0 |
| 20260504015507 | 41 | 170 | 0.0 | 0.0 | 0.00 | 0.00 | 0.00 | 85 | 1008.9 |
| 20260504015003 | 41 | 170 | 0.0 | 0.0 | 0.00 | 0.00 | 0.00 | 85 | 1008.8 |
| 20260504014459 | 42 | 170 | 0.0 | 0.0 | 0.00 | 0.00 | 0.00 | 85 | 1008.9 |
| 20260504013956 | 42 | 170 | 0.0 | 0.0 | 0.00 | 0.00 | 0.00 | 84 | 1008.8 |
| 20260504013455 | 42 | 170 | 0.0 | 0.0 | 0.00 | 0.00 | 0.00 | 82 | 1008.7 |
| 20260504012950 | 43 | 170 | 0.0 | 0.0 | 0.00 | 0.00 | 0.00 | 80 | 1008.9 |
| 20260504012449 | 44 | 170 | 0.0 | 0.0 | 0.00 | 0.00 | 0.00 | 80 | 1008.8 |
| 20260504011946 | 45 | 170 | 0.0 | 0.0 | 0.00 | 0.00 | 0.00 | 80 | 1008.7 |
| 20260504011442 | 45 | 170 | 0.0 | 0.0 | 0.00 | 0.00 | 0.00 | 79 | 1009.0 |
| 20260504010938 | 46 | 170 | 0.0 | 0.0 | 0.00 | 0.00 | 0.00 | 78 | 1008.6 |
| 20260504010434 | 46 | 170 | 0.0 | 1.0 | 0.00 | 0.00 | 0.00 | 77 | 1008.8 |
| 20260504005931 | 46 | 170 | 0.0 | 0.0 | 0.00 | 0.00 | 0.00 | 74 | 1008.6 |
| 20260504005427 | 46 | 170 | 1.0 | 1.0 | 0.00 | 0.00 | 0.00 | 74 | 1008.7 |
| 20260504004925 | 46 | 168 | 0.0 | 0.0 | 0.00 | 0.00 | 0.00 | 74 | 1008.6 |
| 20260504004423 | 46 | 168 | 0.0 | 1.0 | 0.00 | 0.00 | 0.00 | 73 | 1008.6 |
| 20260504003919 | 46 | 235 | 0.0 | 0.0 | 0.00 | 0.00 | 0.00 | 78 | 1008.3 |
| 20260504003416 | 47 | 237 | 0.0 | 0.0 | 0.00 | 0.00 | 0.00 | 77 | 1008.3 |
| 20260504002912 | 46 | 237 | 0.0 | 0.0 | 0.00 | 0.00 | 0.00 | 74 | 1008.2 |
| 20260504002409 | 46 | 237 | 0.0 | 0.0 | 0.00 | 0.00 | 0.00 | 72 | 1008.3 |
| 20260504001907 | 47 | 237 | 0.0 | 0.0 | 0.00 | 0.00 | 0.00 | 74 | 1007.9 |
| 20260504001405 | 48 | 237 | 0.0 | 0.0 | 0.00 | 0.00 | 0.00 | 73 | 1007.8 |
| 20260504000901 | 48 | 237 | 0.0 | 0.0 | 0.00 | 0.00 | 0.00 | 70 | 1007.8 |
| 20260504000358 | 48 | 238 | 0.0 | 0.0 | 0.00 | 0.00 | 0.00 | 71 | 1007.9 |
| 20260503235855 | 48 | 238 | 0.0 | 0.0 | 0.00 | 0.00 | 0.00 | 65 | 1007.7 |
| 20260503235353 | 48 | 238 | 0.0 | 0.0 | 0.00 | 0.00 | 0.00 | 65 | 1007.8 |
| 20260503234850 | 49 | 238 | 0.0 | 0.0 | 0.00 | 0.00 | 0.00 | 64 | 1007.8 |
| 20260503234348 | 50 | 238 | 0.0 | 0.0 | 0.00 | 0.00 | 0.00 | 64 | 1007.8 |
| 20260503233845 | 49 | 238 | 1.0 | 1.0 | 0.00 | 0.00 | 0.00 | 62 | 1007.8 |
| 20260503233342 | 50 | 238 | 0.0 | 0.0 | 0.00 | 0.00 | 0.00 | 61 | 1007.7 |
| 20260503232838 | 50 | 238 | 0.0 | 0.0 | 0.00 | 0.00 | 0.00 | 57 | 1007.7 |
| 20260503232335 | 51 | 237 | 0.0 | 0.0 | 0.00 | 0.00 | 0.00 | 54 | 1007.7 |
| 20260503231833 | 51 | 237 | 0.0 | 0.0 | 0.00 | 0.00 | 0.00 | 55 | 1007.6 |
| 20260503231330 | 51 | 238 | 0.0 | 1.0 | 0.00 | 0.00 | 0.00 | 52 | 1007.5 |
| 20260503230826 | 52 | 269 | 1.0 | 1.0 | 0.00 | 0.00 | 0.00 | 51 | 1007.6 |
| 20260503230323 | 52 | 279 | 3.0 | 3.0 | 0.00 | 0.00 | 0.00 | 50 | 1007.7 |
| 20260503225821 | 53 | 228 | 3.0 | 3.0 | 0.00 | 0.00 | 0.00 | 49 | 1007.7 |
| 20260503225316 | 54 | 164 | 1.0 | 2.0 | 0.00 | 0.00 | 0.00 | 47 | 1007.7 |
| 20260503224813 | 54 | 199 | 1.0 | 1.0 | 0.00 | 0.00 | 0.00 | 49 | 1007.7 |
| 20260503224310 | 55 | 184 | 0.0 | 0.0 | 0.00 | 0.00 | 0.00 | 49 | 1007.7 |
| 20260503223808 | 54 | 213 | 1.0 | 2.0 | 0.00 | 0.00 | 0.00 | 48 | 1007.6 |
| 20260503223305 | 55 | 114 | 1.0 | 3.0 | 0.00 | 0.00 | 0.00 | 48 | 1007.7 |
| 20260503222801 | 55 | 131 | 1.0 | 1.0 | 0.00 | 0.00 | 0.00 | 48 | 1007.7 |
| 20260503222300 | 54 | 49 | 2.0 | 2.0 | 0.00 | 0.00 | 0.00 | 48 | 1007.8 |
| 20260503221757 | 54 | 314 | 1.0 | 1.0 | 0.00 | 0.00 | 0.00 | 50 | 1007.8 |
| 20260503221255 | 53 | 94 | 2.0 | 2.0 | 0.00 | 0.00 | 0.00 | 49 | 1007.9 |
| 20260503220751 | 52 | 161 | 2.0 | 2.0 | 0.00 | 0.00 | 0.00 | 50 | 1008.2 |
| 20260503220248 | 51 | 220 | 2.0 | 3.0 | 0.00 | 0.00 | 0.00 | 52 | 1007.9 |
| 20260503215745 | 51 | 269 | 4.0 | 4.0 | 0.00 | 0.00 | 0.00 | 51 | 1008.2 |
| 20260503215242 | 52 | 161 | 2.0 | 4.0 | 0.00 | 0.00 | 0.00 | 50 | 1008.2 |
| 20260503214740 | 53 | 290 | 4.0 | 6.0 | 0.00 | 0.00 | 0.00 | 50 | 1007.7 |
| 20260503214237 | 53 | 263 | 1.0 | 2.0 | 0.00 | 0.00 | 0.00 | 48 | 1007.9 |
| 20260503213735 | 52 | 277 | 4.0 | 4.0 | 0.00 | 0.00 | 0.00 | 49 | 1008.0 |
| 20260503213232 | 51 | 230 | 4.0 | 8.0 | 0.00 | 0.00 | 0.00 | 50 | 1008.3 |
| 20260503212728 | 51 | 227 | 2.0 | 3.0 | 0.00 | 0.00 | 0.00 | 53 | 1007.8 |
| 20260503212226 | 51 | 329 | 8.0 | 11.0 | 0.00 | 0.00 | 0.00 | 50 | 1008.2 |
| 20260503211724 | 50 | 124 | 1.0 | 1.0 | 0.00 | 0.00 | 0.00 | 53 | 1007.9 |
| 20260503211220 | 51 | 290 | 8.0 | 13.0 | 0.00 | 0.00 | 0.00 | 49 | 1008.3 |
| 20260503210715 | 51 | 334 | 6.0 | 7.0 | 0.00 | 0.00 | 0.00 | 48 | 1008.0 |
| 20260503210213 | 52 | 231 | 5.0 | 7.0 | 0.00 | 0.00 | 0.00 | 48 | 1007.8 |
| 20260503205708 | 52 | 118 | 3.0 | 4.0 | 0.00 | 0.00 | 0.00 | 46 | 1007.9 |
| 20260503205205 | 53 | 196 | 2.0 | 3.0 | 0.00 | 0.00 | 0.00 | 46 | 1007.7 |
| 20260503204701 | 53 | 105 | 2.0 | 4.0 | 0.00 | 0.00 | 0.00 | 45 | 1007.5 |
| 20260503204159 | 53 | 183 | 2.0 | 2.0 | 0.00 | 0.00 | 0.00 | 46 | 1007.5 |
| 20260503203655 | 53 | 140 | 4.0 | 6.0 | 0.00 | 0.00 | 0.00 | 47 | 1007.7 |
| 20260503203154 | 53 | 155 | 3.0 | 4.0 | 0.00 | 0.00 | 0.00 | 45 | 1007.8 |
| 20260503202650 | 52 | 64 | 2.0 | 3.0 | 0.00 | 0.00 | 0.00 | 48 | 1007.7 |
| 20260503202148 | 52 | 299 | 4.0 | 6.0 | 0.00 | 0.00 | 0.00 | 46 | 1007.7 |
| 20260503201646 | 53 | 274 | 3.0 | 3.0 | 0.00 | 0.00 | 0.00 | 45 | 1007.7 |
| 20260503201143 | 52 | 149 | 3.0 | 4.0 | 0.00 | 0.00 | 0.00 | 45 | 1007.8 |
| 20260503200639 | 52 | 346 | 9.0 | 16.0 | 0.00 | 0.00 | 0.00 | 45 | 1008.2 |
| 20260503200136 | 52 | 158 | 4.0 | 4.0 | 0.00 | 0.00 | 0.00 | 45 | 1007.8 |
| 20260503195633 | 53 | 251 | 3.0 | 6.0 | 0.00 | 0.00 | 0.00 | 44 | 1007.8 |
| 20260503195130 | 53 | 49 | 4.0 | 7.0 | 0.00 | 0.00 | 0.00 | 43 | 1008.0 |
| 20260503194627 | 53 | 51 | 4.0 | 6.0 | 0.00 | 0.00 | 0.00 | 44 | 1008.0 |
| 20260503194122 | 55 | 222 | 4.0 | 6.0 | 0.00 | 0.00 | 0.00 | 43 | 1008.0 |
| 20260503193620 | 55 | 59 | 5.0 | 8.0 | 0.00 | 0.00 | 0.00 | 40 | 1008.3 |
| 20260503193114 | 54 | 222 | 2.0 | 4.0 | 0.00 | 0.00 | 0.00 | 42 | 1008.3 |
| 20260503192610 | 53 | 257 | 5.0 | 7.0 | 0.00 | 0.00 | 0.00 | 41 | 1008.2 |
| 20260503192106 | 53 | 271 | 4.0 | 4.0 | 0.00 | 0.00 | 0.00 | 43 | 1008.0 |
| 20260503191604 | 54 | 85 | 2.0 | 2.0 | 0.00 | 0.00 | 0.00 | 42 | 1008.3 |
| 20260503191100 | 53 | 319 | 3.0 | 6.0 | 0.00 | 0.00 | 0.00 | 43 | 1008.3 |
| 20260503190557 | 53 | 276 | 6.0 | 7.0 | 0.00 | 0.00 | 0.00 | 40 | 1008.5 |
| 20260503190054 | 54 | 213 | 4.0 | 4.0 | 0.00 | 0.00 | 0.00 | 41 | 1008.5 |
| 20260503185551 | 53 | 192 | 4.0 | 6.0 | 0.00 | 0.00 | 0.00 | 40 | 1008.6 |
| 20260503185050 | 53 | 273 | 2.0 | 2.0 | 0.00 | 0.00 | 0.00 | 40 | 1008.5 |
| 20260503184546 | 53 | 192 | 2.0 | 4.0 | 0.00 | 0.00 | 0.00 | 42 | 1008.9 |
| 20260503184043 | 53 | 314 | 9.0 | 14.0 | 0.00 | 0.00 | 0.00 | 39 | 1008.8 |
| 20260503183540 | 54 | 314 | 4.0 | 4.0 | 0.00 | 0.00 | 0.00 | 41 | 1008.7 |
| 20260503183037 | 53 | 156 | 4.0 | 9.0 | 0.00 | 0.00 | 0.00 | 41 | 1009.0 |
| 20260503182536 | 53 | 299 | 3.0 | 4.0 | 0.00 | 0.00 | 0.00 | 42 | 1009.0 |
| 20260503182033 | 54 | 330 | 3.0 | 4.0 | 0.00 | 0.00 | 0.00 | 42 | 1009.0 |
| 20260503181530 | 53 | 44 | 4.0 | 7.0 | 0.00 | 0.00 | 0.00 | 40 | 1009.0 |
| 20260503181026 | 53 | 319 | 9.0 | 10.0 | 0.00 | 0.00 | 0.00 | 40 | 1009.0 |
| 20260503180524 | 51 | 306 | 8.0 | 14.0 | 0.00 | 0.00 | 0.00 | 41 | 1009.2 |
| 20260503180021 | 52 | 303 | 6.0 | 8.0 | 0.00 | 0.00 | 0.00 | 41 | 1009.2 |
| 20260503175518 | 52 | 182 | 4.0 | 7.0 | 0.00 | 0.00 | 0.00 | 40 | 1009.3 |
| 20260503175015 | 52 | 225 | 5.0 | 6.0 | 0.00 | 0.00 | 0.00 | 41 | 1009.3 |
| 20260503174513 | 51 | 69 | 7.0 | 15.0 | 0.00 | 0.00 | 0.00 | 42 | 1009.5 |
| 20260503174008 | 51 | 215 | 5.0 | 8.0 | 0.00 | 0.00 | 0.00 | 42 | 1009.2 |
| 20260503173503 | 50 | 248 | 4.0 | 7.0 | 0.00 | 0.00 | 0.00 | 44 | 1009.4 |
| 20260503173000 | 50 | 82 | 2.0 | 3.0 | 0.00 | 0.00 | 0.00 | 46 | 1009.4 |
| 20260503172458 | 50 | 289 | 5.0 | 9.0 | 0.00 | 0.00 | 0.00 | 43 | 1009.5 |
| 20260503171955 | 51 | 293 | 3.0 | 4.0 | 0.00 | 0.00 | 0.00 | 42 | 1009.2 |
| 20260503171451 | 50 | 186 | 1.0 | 2.0 | 0.00 | 0.00 | 0.00 | 43 | 1009.5 |
| 20260503170949 | 50 | 254 | 5.0 | 7.0 | 0.00 | 0.00 | 0.00 | 42 | 1009.5 |
| 20260503170445 | 50 | 91 | 5.0 | 8.0 | 0.00 | 0.00 | 0.00 | 43 | 1009.6 |
| 20260503150837 | 44 | 321 | 6.0 | 8.0 | 0.00 | 0.00 | 0.00 | 52 | 1010.4 |
| 20260503150333 | 45 | 186 | 1.0 | 1.0 | 0.00 | 0.00 | 0.00 | 51 | 1010.2 |
| 20260503140257 | 43 | 249 | 3.0 | 4.0 | 0.00 | 0.00 | 0.00 | 54 | 1010.2 |
| 20260503131227 | 44 | 141 | 5.0 | 7.0 | 0.00 | 0.00 | 0.00 | 62 | 1010.4 |
| 20260503130725 | 42 | 218 | 3.0 | 3.0 | 0.00 | 0.00 | 0.00 | 66 | 1010.4 |
| 20260503130222 | 44 | 199 | 0.0 | 1.0 | 0.00 | 0.00 | 0.00 | 63 | 1010.4 |
| 20260503120148 | 39 | 136 | 2.0 | 4.0 | 0.00 | 0.00 | 0.00 | 78 | 1010.4 |
| 20260503110615 | 36 | 132 | 0.0 | 0.0 | 0.00 | 0.00 | 0.00 | 84 | 1010.0 |
| 20260503110112 | 36 | 205 | 1.0 | 2.0 | 0.00 | 0.00 | 0.00 | 84 | 1009.9 |
| 20260503090502 | 35 | 156 | 0.0 | 0.0 | 0.00 | 0.00 | 0.00 | 95 | 1009.3 |
| 20260503081428 | 35 | 155 | 0.0 | 0.0 | 0.00 | 0.00 | 0.00 | 94 | 1009.3 |
| 20260503080920 | 35 | 155 | 0.0 | 0.0 | 0.00 | 0.00 | 0.00 | 93 | 1009.5 |
| 20260503080416 | 35 | 155 | 0.0 | 0.0 | 0.00 | 0.00 | 0.00 | 93 | 1009.6 |
| 20260503072852 | 34 | 155 | 0.0 | 0.0 | 0.00 | 0.00 | 0.00 | 94 | 1009.5 |
| 20260503072349 | 34 | 155 | 0.0 | 0.0 | 0.00 | 0.00 | 0.00 | 94 | 1009.5 |
| 20260503071846 | 34 | 176 | 0.0 | 0.0 | 0.00 | 0.00 | 0.00 | 94 | 1009.6 |
| 20260503071343 | 34 | 178 | 0.0 | 0.0 | 0.00 | 0.00 | 0.00 | 95 | 1009.6 |
| 20260503070839 | 34 | 178 | 0.0 | 0.0 | 0.00 | 0.00 | 0.00 | 95 | 1009.6 |
| 20260503070338 | 34 | 178 | 0.0 | 0.0 | 0.00 | 0.00 | 0.00 | 94 | 1009.6 |
| 20260503060256 | 33 | 154 | 0.0 | 0.0 | 0.00 | 0.00 | 0.00 | 93 | 1010.1 |